Weather History for Champaign, IL

Change the Weather History Date:

Wednesday, March 13, 2013

  Actual Average Record
Temperature  
Mean Temperature 30 °F 40 °F  
Max Temperature 36 °F 49 °F 78 °F (2007)
Min Temperature 24 °F 30 °F 20 °F (2009)
Degree Days  
Heating Degree Days 35 25  
Month to date heating degree days 406 362  
Since 1 July heating degree days 4567 4864  
Cooling Degree Days 0 0  
Month to date cooling degree days 0 0  
Year to date cooling degree days 0 0  
Moisture  
Dew Point 20 °F    
Average Humidity 70    
Maximum Humidity 88    
Minimum Humidity 52    
Precipitation  
Precipitation T in 0.08 in 0.71 in (2003)
Month to date precipitation 0.38 0.87  
Year to date precipitation 5.44 4.94  
Sea Level Pressure  
Sea Level Pressure 30.27 in    
Wind  
Wind Speed 14 mph (WNW)    
Max Wind Speed 24 mph    
Max Gust Speed 29 mph    
Visibility 9 miles    
Events Snow    
T = Trace of Precipitation, MM = Missing Value Source: NWS Daily Summary

Daily Weather History Graph

Daily Weather History Graph

Search for Another Location

Airport:

Trip Planner

Search our weather history database for the weather conditions in past years. The results will help you decide how hot, cold, wet, or windy it might be!

Date:

Astronomy

Mar. 13, 2013 Rise Set
Actual Time 7:07 AM CDT 6:58 PM CDT
Civil Twilight 6:40 AM CDT 7:25 PM CDT
Nautical Twilight 6:09 AM CDT 7:56 PM CDT
Astronomical Twilight 5:37 AM CDT 8:28 PM CDT
Moon 7:46 AM CDT (3/13) 9:14 PM CDT (3/13)
Length of Visible Light 12h 44m
Length of Day
11h 50m
Waxing Crescent, 4% of the Moon is Illuminated
Mar 13
Waxing Crescent
Mar 19
First Quarter
Mar 27
Full
Apr 2
Last Quarter
Apr 10
New

Hourly Weather History & Observations

Time (CDT) Temp. Windchill Dew Point Humidity Pressure Visibility Wind Dir Wind Speed Gust Speed Precip Events Conditions
12:53 AM 28.0 °F 14.6 °F 21.9 °F 78% 30.13 in 10.0 mi WNW 20.7 mph - N/A   Mostly Cloudy
2:53 AM 26.1 °F 11.6 °F 18.0 °F 71% 30.14 in 10.0 mi WNW 21.9 mph 28.8 mph N/A   Clear
3:53 AM 26.1 °F 13.6 °F 19.0 °F 75% 30.14 in 10.0 mi West 16.1 mph 27.6 mph N/A   Mostly Cloudy
4:13 AM 26.6 °F 13.1 °F 19.4 °F 74% 30.12 in 5.0 mi WNW 19.6 mph 28.8 mph 0.00 in Snow Light Snow
4:26 AM 24.8 °F 10.3 °F 21.2 °F 86% 30.12 in 2.0 mi WNW 20.7 mph - 0.00 in Snow Light Snow
4:46 AM 24.8 °F 12.4 °F 21.2 °F 86% 30.13 in 7.0 mi WNW 15.0 mph 23.0 mph 0.00 in Snow Light Snow
4:53 AM 25.0 °F 12.2 °F 21.0 °F 85% 30.16 in 9.0 mi WNW 16.1 mph - 0.00 in   Mostly Cloudy
5:53 AM 25.0 °F 12.2 °F 19.9 °F 81% 30.18 in 10.0 mi WNW 16.1 mph - N/A   Mostly Cloudy
6:53 AM 24.1 °F 10.6 °F 19.0 °F 81% 30.20 in 10.0 mi WNW 17.3 mph - N/A   Clear
7:36 AM 24.8 °F 11.5 °F 19.4 °F 80% 30.19 in 10.0 mi WNW 17.3 mph 24.2 mph N/A   Mostly Cloudy
7:53 AM 25.0 °F 11.3 °F 18.0 °F 75% 30.23 in 10.0 mi WNW 18.4 mph 25.3 mph N/A   Overcast
8:53 AM 25.0 °F 12.6 °F 19.0 °F 78% 30.26 in 7.0 mi NW 15.0 mph - 0.00 in   Overcast
9:53 AM 26.1 °F 12.7 °F 19.0 °F 75% 30.29 in 8.0 mi NW 18.4 mph 26.5 mph 0.00 in   Overcast
10:53 AM 27.0 °F 13.5 °F 19.0 °F 72% 30.31 in 10.0 mi WNW 19.6 mph - 0.00 in   Mostly Cloudy
11:53 AM 28.0 °F 16.1 °F 19.0 °F 69% 30.33 in 10.0 mi WNW 16.1 mph 25.3 mph N/A   Overcast
12:53 PM 28.9 °F 16.1 °F 19.0 °F 67% 30.35 in 10.0 mi WNW 19.6 mph - N/A   Overcast
1:53 PM 30.0 °F 18.3 °F 19.0 °F 64% 30.35 in 10.0 mi NW 17.3 mph 24.2 mph N/A   Overcast
2:53 PM 32.0 °F 21.2 °F 19.9 °F 61% 30.35 in 10.0 mi WNW 16.1 mph - N/A   Mostly Cloudy
3:53 PM 34.0 °F 23.0 °F 21.0 °F 59% 30.36 in 10.0 mi WNW 18.4 mph 27.6 mph N/A   Mostly Cloudy
4:53 PM 35.1 °F 25.2 °F 19.9 °F 54% 30.36 in 10.0 mi WNW 16.1 mph 21.9 mph N/A   Scattered Clouds
5:53 PM 34.0 °F 24.6 °F 19.9 °F 56% 30.36 in 10.0 mi WNW 13.8 mph - N/A   Partly Cloudy
6:53 PM 32.0 °F 23.0 °F 19.9 °F 61% 30.37 in 10.0 mi WNW 11.5 mph - N/A   Clear
7:53 PM 28.9 °F 21.9 °F 21.0 °F 72% 30.37 in 10.0 mi WNW 6.9 mph - N/A   Clear
8:53 PM 28.0 °F 24.2 °F 21.0 °F 75% 30.38 in 10.0 mi WNW 3.5 mph - N/A   Clear
9:53 PM 26.1 °F 19.4 °F 21.0 °F 81% 30.39 in 10.0 mi WNW 5.8 mph - N/A   Clear
10:53 PM 25.0 °F 19.3 °F 21.0 °F 85% 30.39 in 10.0 mi West 4.6 mph - N/A   Clear
11:53 PM 24.1 °F 17.0 °F 19.9 °F 84% 30.39 in 10.0 mi WSW 5.8 mph - N/A   Clear